Date String (YYYY-MM-DD hh:mm:ss) UTC,Instrument flags,absolute air pressure of the measurement (hPa),sample flow rate (lpm),inlet stack bypass flow (lpm),air temperature of the measurement (°C),ambient temperature measured by the external sensor (°C),aerosol sample conditioner tube jacket temperature (°C),OPC LED temperature (°C),internal box temperature (°C),relative humidity of the measurement (%),span deviation,mass concentration of particles derived from Lorenz-Mie calculation of OPC scattering (μg/m³),mass concentration of particles derived from Lorenz-Mie calculation of OPC scattering (μg/m³),mass concentration of particles derived from Lorenz-Mie calculation of OPC scattering (μg/m³)
DateTimeUTC,F1_M11,P_M11,Q1_M11,Q2_M11,T1_M11,T2_M11,T3_M11,T4_M11,T5_M11,U1_M11,ZSPAN_M11,X2_M11,X0_M11,X1_M11
2024-01-24 08:00:00,SystemResetWarning,0825.9,5.00,000.00,024.2,023.0,000.0,032.6,025.4,17.0,0001.7,0008.96,0015.28,0008.11
2024-01-24 08:01:00,SystemResetWarning,0825.9,4.99,000.00,024.1,023.0,000.0,032.6,025.4,17.0,0001.5,0008.95,0015.86,0008.13
2024-01-24 08:02:00,SystemResetWarning,0825.9,5.00,000.00,024.1,023.0,000.0,032.6,025.4,17.0,0002.0,0008.95,0016.07,0008.15
2024-01-24 08:03:00,SystemResetWarning,0825.9,5.00,000.00,024.1,023.0,000.0,032.6,025.4,17.0,0002.0,0008.98,0016.17,0008.17
2024-01-24 08:04:00,SystemResetWarning,0825.9,5.00,000.00,024.1,023.0,000.0,032.6,025.4,17.0,0002.0,0009.00,0015.93,0008.22
2024-01-24 08:05:00,SystemResetWarning,0825.9,5.00,000.00,024.1,023.0,000.0,032.5,025.3,17.0,0002.0,0009.04,0015.93,0008.27
2024-01-24 08:06:00,SystemResetWarning,0825.9,5.01,000.00,024.1,022.9,000.0,032.5,025.3,17.0,0002.2,0009.09,0016.40,0008.32
2024-01-24 08:07:00,SystemResetWarning,0825.9,5.00,000.00,024.0,022.9,000.0,032.5,025.2,17.0,0002.6,0009.20,0016.74,0008.37
2024-01-24 08:08:00,SystemResetWarning,0825.9,5.00,000.00,024.0,022.9,000.0,032.5,025.2,17.0,0002.9,0009.27,0016.95,0008.43
2024-01-24 08:09:00,SystemResetWarning,0825.9,4.99,000.00,024.0,022.9,000.0,032.5,025.2,17.1,0003.2,0009.36,0017.07,0008.49
2024-01-24 08:10:00,SystemResetWarning,0826.0,4.99,000.00,024.0,022.9,000.0,032.5,025.2,17.1,0003.0,0009.40,0016.75,0008.54
2024-01-24 08:11:00,SystemResetWarning,0825.9,5.00,000.00,024.0,022.9,000.0,032.5,025.1,17.1,0002.6,0009.40,0016.21,0008.58
2024-01-24 08:12:00,SystemResetWarning,0825.9,5.01,000.00,023.9,022.9,000.0,032.4,025.1,17.2,0002.5,0009.48,0015.66,0008.62
2024-01-24 08:13:00,SystemResetWarning,0826.0,5.00,000.00,023.9,022.8,000.0,032.4,025.0,17.2,0002.1,0009.53,0015.52,0008.67
2024-01-24 08:14:00,SystemResetWarning,0825.9,5.00,000.00,023.9,022.8,000.0,032.4,025.0,17.2,0002.1,0009.58,0015.45,0008.71
2024-01-24 08:15:00,SystemResetWarning,0825.9,5.00,000.00,023.9,022.7,000.0,032.4,025.0,17.2,0001.9,0009.58,0015.20,0008.72
2024-01-24 08:16:00,SystemResetWarning,0825.9,5.00,000.00,023.8,022.7,000.0,032.4,025.0,17.1,0002.2,0009.60,0014.96,0008.74
2024-01-24 08:17:00,SystemResetWarning,0825.9,5.00,000.00,023.8,022.7,000.0,032.4,025.0,17.2,0001.9,0009.61,0014.45,0008.74
2024-01-24 08:18:00,SystemResetWarning,0825.8,5.00,000.00,023.8,022.7,000.0,032.3,024.9,17.2,0001.8,0009.63,0014.50,0008.77
2024-01-24 08:19:00,SystemResetWarning,0825.8,5.00,000.00,023.8,022.6,000.0,032.3,024.9,17.3,0001.4,0009.63,0014.58,0008.80
2024-01-24 08:20:00,SystemResetWarning,0825.9,5.00,000.00,023.7,022.6,000.0,032.3,024.9,17.3,0001.2,0009.61,0014.36,0008.81
2024-01-24 08:21:00,SystemResetWarning,0825.8,5.00,000.00,023.7,022.6,000.0,032.3,024.9,17.3,0001.5,0009.61,0014.23,0008.81
2024-01-24 08:22:00,SystemResetWarning,0825.8,4.99,000.00,023.7,022.6,000.0,032.2,024.9,17.4,0001.5,0009.63,0014.84,0008.81
2024-01-24 08:23:00,SystemResetWarning,0825.8,5.00,000.00,023.7,022.5,000.0,032.2,025.0,17.4,0001.5,0009.62,0015.56,0008.79
2024-01-24 08:24:00,SystemResetWarning,0825.8,5.01,000.00,023.7,022.5,000.0,032.2,025.0,17.4,0001.5,0009.59,0015.45,0008.76
2024-01-24 08:25:00,SystemResetWarning,0825.8,5.01,000.00,023.7,022.5,000.0,032.2,025.0,17.4,0001.8,0009.55,0015.38,0008.73
2024-01-24 08:26:00,SystemResetWarning,0825.8,5.00,000.00,023.7,022.5,000.0,032.2,024.9,17.5,0001.6,0009.52,0015.27,0008.71
2024-01-24 08:27:00,SystemResetWarning,0825.8,4.99,000.00,023.7,022.5,000.0,032.1,024.9,17.5,0001.5,0009.44,0015.16,0008.67
2024-01-24 08:28:00,SystemResetWarning,0825.8,5.00,000.00,023.6,022.4,000.0,032.1,024.9,17.5,0002.0,0009.39,0015.14,0008.65
2024-01-24 08:29:00,SystemResetWarning,0825.8,5.00,000.00,023.6,022.4,000.0,032.1,025.0,17.6,0002.1,0009.33,0015.14,0008.61
2024-01-24 08:30:00,SystemResetWarning,0825.8,5.00,000.00,023.6,022.4,000.0,032.1,024.9,17.6,0001.9,0009.30,0015.56,0008.56
2024-01-24 08:31:00,SystemResetWarning,0825.8,5.01,000.00,023.6,022.4,000.0,032.1,024.9,17.6,0001.8,0009.28,0015.71,0008.51
2024-01-24 08:32:00,SystemResetWarning,0825.8,5.00,000.00,023.6,022.4,000.0,032.1,024.9,17.6,0001.8,0009.28,0016.69,0008.51
2024-01-24 08:33:00,SystemResetWarning,0825.8,5.00,000.00,023.6,022.4,000.0,032.1,024.9,17.6,0001.9,0009.28,0016.93,0008.50
2024-01-24 08:34:00,SystemResetWarning,0825.8,5.00,000.00,023.6,022.4,000.0,032.1,024.8,17.7,0001.5,0009.27,0017.08,0008.50
2024-01-24 08:35:00,SystemResetWarning,0825.8,5.00,000.00,023.5,022.4,000.0,032.0,024.7,17.7,0001.2,0009.28,0017.38,0008.50
2024-01-24 08:36:00,SystemResetWarning,0825.8,4.99,000.00,023.5,022.3,000.0,032.0,024.7,17.7,0001.1,0009.33,0017.51,0008.51
2024-01-24 08:37:00,SystemResetWarning,0825.8,5.00,000.00,023.5,022.3,000.0,032.0,024.6,17.7,0001.5,0009.35,0017.75,0008.51
2024-01-24 08:38:00,SystemResetWarning,0825.8,5.00,000.00,023.4,022.3,000.0,032.0,024.5,17.7,0001.5,0009.38,0017.79,0008.53
2024-01-24 08:39:00,SystemResetWarning,0825.8,5.00,000.00,023.4,022.3,000.0,032.0,024.5,17.8,0001.4,0009.48,0017.96,0008.54
2024-01-24 08:40:00,SystemResetWarning,0825.8,5.00,000.00,023.4,022.3,000.0,032.0,024.5,17.8,0001.7,0009.51,0017.82,0008.55
2024-01-24 08:41:00,SystemResetWarning,0825.8,5.00,000.00,023.4,022.2,000.0,031.9,024.5,17.8,0002.1,0009.52,0017.06,0008.54
2024-01-24 08:42:00,SystemResetWarning,0825.8,5.00,000.00,023.4,022.2,000.0,031.9,024.5,17.8,0002.0,0009.50,0017.19,0008.54
2024-01-24 08:43:00,SystemResetWarning,0825.8,5.00,000.00,023.3,022.2,000.0,031.9,024.5,17.9,0001.6,0009.45,0016.52,0008.53
2024-01-24 08:44:00,SystemResetWarning,0825.8,5.00,000.00,023.3,022.2,000.0,031.9,024.6,17.9,0001.4,0009.45,0015.66,0008.52
2024-01-24 08:45:00,SystemResetWarning,0825.8,5.00,000.00,023.3,022.2,000.0,031.8,024.6,17.9,0001.5,0009.44,0014.75,0008.51
2024-01-24 08:46:00,SystemResetWarning,0825.8,5.00,000.00,023.3,022.1,000.0,031.8,024.6,17.9,0002.0,0009.40,0014.36,0008.48
2024-01-24 08:47:00,SystemResetWarning,0825.8,5.00,000.00,023.3,022.1,000.0,031.8,024.6,17.9,0002.2,0009.35,0014.32,0008.46
2024-01-24 08:48:00,SystemResetWarning,0825.8,5.01,000.00,023.3,022.1,000.0,031.8,024.6,17.9,0002.1,0009.32,0014.94,0008.46
2024-01-24 08:49:00,SystemResetWarning,0825.8,5.01,000.00,023.3,022.1,000.0,031.8,024.6,17.7,0002.0,0009.34,0014.94,0008.48
2024-01-24 08:50:00,SystemResetWarning,0825.8,5.01,000.00,023.3,022.1,000.0,031.8,024.6,17.7,0002.4,0009.31,0015.09,0008.47
2024-01-24 08:51:00,SystemResetWarning,0825.8,5.01,000.00,023.3,022.1,000.0,031.8,024.6,17.5,0002.3,0009.28,0015.00,0008.49
2024-01-24 08:52:00,SystemResetWarning,0825.8,4.99,000.00,023.3,022.1,000.0,031.8,024.4,17.7,0002.2,0009.34,0015.65,0008.54
2024-01-24 08:53:00,SystemResetWarning,0825.8,5.00,000.00,023.2,022.1,000.0,031.7,024.4,17.9,0002.3,0009.42,0016.39,0008.60
2024-01-24 08:54:00,SystemResetWarning,0825.9,5.00,000.00,023.2,022.1,000.0,031.7,024.3,17.9,0002.4,0009.52,0016.17,0008.68
2024-01-24 08:55:00,SystemResetWarning,0825.8,5.00,000.00,023.2,022.1,000.0,031.7,024.3,18.0,0002.6,0009.61,0016.61,0008.73
2024-01-24 08:56:00,SystemResetWarning,0825.9,4.99,000.00,023.1,022.0,000.0,031.7,024.2,18.0,0002.7,0009.67,0017.05,0008.80
2024-01-24 08:57:00,SystemResetWarning,0825.9,5.00,000.00,023.1,022.0,000.0,031.7,024.2,18.0,0002.6,0009.76,0017.34,0008.90
2024-01-24 08:58:00,SystemResetWarning,0825.9,5.00,000.00,023.1,022.0,000.0,031.7,024.2,18.0,0002.6,0009.82,0017.74,0008.98
2024-01-24 08:59:00,SystemResetWarning,0826.0,5.00,000.00,023.1,022.0,000.0,031.6,024.2,18.1,0002.7,0009.90,0017.17,0009.06
